Year,Month,Day,Hour,Minute,Value (Times are PST for temperature in C)
2005,06,23,00,00,13.50
2005,06,23,00,01,13.50
2005,06,23,00,02,13.50
2005,06,23,00,03,13.50
2005,06,23,00,04,13.50
2005,06,23,00,05,13.50
2005,06,23,00,06,13.50
2005,06,23,00,07,13.50
2005,06,23,00,08,13.50
2005,06,23,00,09,13.50
2005,06,23,00,10,13.50
2005,06,23,00,11,13.50
2005,06,23,00,12,13.60
2005,06,23,00,13,13.60
2005,06,23,00,14,13.60
2005,06,23,00,15,13.60
2005,06,23,00,16,13.60
2005,06,23,00,17,13.60
2005,06,23,00,18,13.50
2005,06,23,00,19,13.50
2005,06,23,00,20,13.50
2005,06,23,00,21,13.50
2005,06,23,00,22,13.40
2005,06,23,00,23,13.40
2005,06,23,00,24,13.30
2005,06,23,00,25,13.30
2005,06,23,00,26,13.30
2005,06,23,00,27,13.30
2005,06,23,00,28,13.30
2005,06,23,00,29,13.30
2005,06,23,00,30,13.30
2005,06,23,00,31,13.30
2005,06,23,00,32,13.30
2005,06,23,00,33,13.30
2005,06,23,00,34,13.30
2005,06,23,00,35,13.30
2005,06,23,00,36,13.30
2005,06,23,00,37,13.30
2005,06,23,00,38,13.30
2005,06,23,00,39,13.20
2005,06,23,00,40,13.20
2005,06,23,00,41,13.20
2005,06,23,00,42,13.20
2005,06,23,00,43,13.10
2005,06,23,00,44,13.10
2005,06,23,00,45,13.10
2005,06,23,00,46,13.10
2005,06,23,00,47,13.10
2005,06,23,00,48,13.00
2005,06,23,00,49,13.00
2005,06,23,00,50,13.00
2005,06,23,00,51,13.00
2005,06,23,00,52,12.90
2005,06,23,00,53,12.90
2005,06,23,00,54,12.90
2005,06,23,00,55,12.90
2005,06,23,00,56,12.90
2005,06,23,00,57,12.90
2005,06,23,00,58,12.90
2005,06,23,00,59,12.80
2005,06,23,01,00,12.80
2005,06,23,01,01,12.80
2005,06,23,01,02,12.80
2005,06,23,01,03,12.80
2005,06,23,01,04,12.80
2005,06,23,01,05,12.80
2005,06,23,01,06,12.80
2005,06,23,01,07,12.80
2005,06,23,01,08,12.80
2005,06,23,01,09,12.80
2005,06,23,01,10,12.80
2005,06,23,01,11,12.80
2005,06,23,01,12,12.80
2005,06,23,01,13,12.80
2005,06,23,01,14,12.80
2005,06,23,01,15,12.80
2005,06,23,01,16,12.80
2005,06,23,01,17,12.80
2005,06,23,01,18,12.80
2005,06,23,01,19,12.70
2005,06,23,01,20,12.80
2005,06,23,01,21,12.80
2005,06,23,01,22,12.80
2005,06,23,01,23,12.80
2005,06,23,01,24,12.80
2005,06,23,01,25,12.80
2005,06,23,01,26,12.80
2005,06,23,01,27,12.80
2005,06,23,01,28,12.80
2005,06,23,01,29,12.70
2005,06,23,01,30,12.70
2005,06,23,01,31,12.70
2005,06,23,01,32,12.60
2005,06,23,01,33,12.60
2005,06,23,01,34,12.60
2005,06,23,01,35,12.60
2005,06,23,01,36,12.60
2005,06,23,01,37,12.70
2005,06,23,01,38,12.70
2005,06,23,01,39,12.70
2005,06,23,01,40,12.70
2005,06,23,01,41,12.70
2005,06,23,01,42,12.70
2005,06,23,01,43,12.70
2005,06,23,01,44,12.70
2005,06,23,01,45,12.70
2005,06,23,01,46,12.60
2005,06,23,01,47,12.60
2005,06,23,01,48,12.60
2005,06,23,01,49,12.70
2005,06,23,01,50,12.70
2005,06,23,01,51,12.70
2005,06,23,01,52,12.70
2005,06,23,01,53,12.70
2005,06,23,01,54,12.70
2005,06,23,01,55,12.60
2005,06,23,01,56,12.60
2005,06,23,01,57,12.70
2005,06,23,01,58,12.70
2005,06,23,01,59,12.70
2005,06,23,02,00,12.60
2005,06,23,02,01,12.60
2005,06,23,02,02,12.60
2005,06,23,02,03,12.60
2005,06,23,02,04,12.50
2005,06,23,02,05,12.50
2005,06,23,02,06,12.50
2005,06,23,02,07,12.50
2005,06,23,02,08,12.40
2005,06,23,02,09,12.40
2005,06,23,02,10,12.40
2005,06,23,02,11,12.30
2005,06,23,02,12,12.30
2005,06,23,02,13,12.30
2005,06,23,02,14,12.30
2005,06,23,02,15,12.30
2005,06,23,02,16,12.30
2005,06,23,02,17,12.30
2005,06,23,02,18,12.20
2005,06,23,02,19,12.20
2005,06,23,02,20,12.10
2005,06,23,02,21,12.10
2005,06,23,02,22,12.00
2005,06,23,02,23,12.00
2005,06,23,02,24,12.00
2005,06,23,02,25,11.90
2005,06,23,02,26,11.90
2005,06,23,02,27,11.90
2005,06,23,02,28,11.80
2005,06,23,02,29,11.80
2005,06,23,02,30,11.80
2005,06,23,02,31,11.80
2005,06,23,02,32,11.70
2005,06,23,02,33,11.70
2005,06,23,02,34,11.70
2005,06,23,02,35,11.60
2005,06,23,02,36,11.60
2005,06,23,02,37,11.60
2005,06,23,02,38,11.60
2005,06,23,02,39,11.60
2005,06,23,02,40,11.60
2005,06,23,02,41,11.50
2005,06,23,02,42,11.40
2005,06,23,02,43,11.40
2005,06,23,02,44,11.40
2005,06,23,02,45,11.40
2005,06,23,02,46,11.30
2005,06,23,02,47,11.30
2005,06,23,02,48,11.30
2005,06,23,02,49,11.20
2005,06,23,02,50,11.10
2005,06,23,02,51,11.10
2005,06,23,02,52,11.00
2005,06,23,02,53,10.90
2005,06,23,02,54,10.90
2005,06,23,02,55,10.90
2005,06,23,02,56,10.90
2005,06,23,02,57,10.90
2005,06,23,02,58,10.80
2005,06,23,02,59,10.80
2005,06,23,03,00,10.80
2005,06,23,03,01,10.70
2005,06,23,03,02,10.60
2005,06,23,03,03,10.60
2005,06,23,03,04,10.60
2005,06,23,03,05,10.60
2005,06,23,03,06,10.60
2005,06,23,03,07,10.60
2005,06,23,03,08,10.40
2005,06,23,03,09,10.40
2005,06,23,03,10,10.40
2005,06,23,03,11,10.40
2005,06,23,03,12,10.40
2005,06,23,03,13,10.40
2005,06,23,03,14,10.40
2005,06,23,03,15,10.40
2005,06,23,03,16,10.40
2005,06,23,03,17,10.30
2005,06,23,03,18,10.30
2005,06,23,03,19,10.20
2005,06,23,03,20,10.20
2005,06,23,03,21,10.10
2005,06,23,03,22,10.10
2005,06,23,03,23,10.00
2005,06,23,03,24,9.90
2005,06,23,03,25,9.90
2005,06,23,03,26,9.80
2005,06,23,03,27,9.80
2005,06,23,03,28,9.80
2005,06,23,03,29,9.70
2005,06,23,03,30,9.70
2005,06,23,03,31,9.70
2005,06,23,03,32,9.70
2005,06,23,03,33,9.70
2005,06,23,03,34,9.70
2005,06,23,03,35,9.70
2005,06,23,03,36,9.70
2005,06,23,03,37,9.60
2005,06,23,03,38,9.60
2005,06,23,03,39,9.60
2005,06,23,03,40,9.60
2005,06,23,03,41,9.60
2005,06,23,03,42,9.60
2005,06,23,03,43,9.60
2005,06,23,03,44,9.60
2005,06,23,03,45,9.60
2005,06,23,03,46,9.60
2005,06,23,03,47,9.60
2005,06,23,03,48,9.60
2005,06,23,03,49,9.60
2005,06,23,03,50,9.60
2005,06,23,03,51,9.60
2005,06,23,03,52,9.60
2005,06,23,03,53,9.60
2005,06,23,03,54,9.60
2005,06,23,03,55,9.60
2005,06,23,03,56,9.60
2005,06,23,03,57,9.60
2005,06,23,03,58,9.60
2005,06,23,03,59,9.60
2005,06,23,04,00,9.60
2005,06,23,04,01,9.60
2005,06,23,04,02,9.50
2005,06,23,04,03,9.50
2005,06,23,04,04,9.50
2005,06,23,04,05,9.50
2005,06,23,04,06,9.60
2005,06,23,04,07,9.60
2005,06,23,04,08,9.60
2005,06,23,04,09,9.60
2005,06,23,04,10,9.60
2005,06,23,04,11,9.60
2005,06,23,04,12,9.60
2005,06,23,04,13,9.60
2005,06,23,04,14,9.60
2005,06,23,04,15,9.60
2005,06,23,04,16,9.60
2005,06,23,04,17,9.60
2005,06,23,04,18,9.60
2005,06,23,04,19,9.60
2005,06,23,04,20,9.60
2005,06,23,04,21,9.60
2005,06,23,04,22,9.60
2005,06,23,04,23,9.60
2005,06,23,04,24,9.50
2005,06,23,04,25,9.50
2005,06,23,04,26,9.40
2005,06,23,04,27,9.40
2005,06,23,04,28,9.40
2005,06,23,04,29,9.40
2005,06,23,04,30,9.30
2005,06,23,04,31,9.30
2005,06,23,04,32,9.30
2005,06,23,04,33,9.30
2005,06,23,04,34,9.30
2005,06,23,04,35,9.20
2005,06,23,04,36,9.20
2005,06,23,04,37,9.20
2005,06,23,04,38,9.20
2005,06,23,04,39,9.20
2005,06,23,04,40,9.20
2005,06,23,04,41,9.20
2005,06,23,04,42,9.20
2005,06,23,04,43,9.10
2005,06,23,04,44,9.10
2005,06,23,04,45,9.10
2005,06,23,04,46,9.10
2005,06,23,04,47,9.00
2005,06,23,04,48,9.00
2005,06,23,04,49,9.00
2005,06,23,04,50,9.00
2005,06,23,04,51,9.00
2005,06,23,04,52,9.00
2005,06,23,04,53,8.90
2005,06,23,04,54,8.90
2005,06,23,04,55,8.90
2005,06,23,04,56,8.90
2005,06,23,04,57,8.90
2005,06,23,04,58,8.80
2005,06,23,04,59,8.80
2005,06,23,05,00,8.80
2005,06,23,05,01,8.80
2005,06,23,05,02,8.80
2005,06,23,05,03,8.80
2005,06,23,05,04,8.80
2005,06,23,05,05,8.80
2005,06,23,05,06,8.80
2005,06,23,05,07,8.80
2005,06,23,05,08,8.80
2005,06,23,05,09,8.80
2005,06,23,05,10,8.80
2005,06,23,05,11,8.80
2005,06,23,05,12,8.80
2005,06,23,05,13,8.80
2005,06,23,05,14,8.80
2005,06,23,05,15,8.80
2005,06,23,05,16,8.80
2005,06,23,05,17,8.80
2005,06,23,05,18,8.80
2005,06,23,05,19,8.90
2005,06,23,05,20,8.90
2005,06,23,05,21,8.90
2005,06,23,05,22,8.90
2005,06,23,05,23,8.90
2005,06,23,05,24,8.90
2005,06,23,05,25,8.90
2005,06,23,05,26,8.90
2005,06,23,05,27,8.90
2005,06,23,05,28,8.90
2005,06,23,05,29,8.90
2005,06,23,05,30,8.90
2005,06,23,05,31,8.90
2005,06,23,05,32,8.90
2005,06,23,05,33,8.90
2005,06,23,05,34,8.90
2005,06,23,05,35,8.90
2005,06,23,05,36,8.90
2005,06,23,05,37,8.90
2005,06,23,05,38,8.90
2005,06,23,05,39,9.00
2005,06,23,05,40,8.90
2005,06,23,05,41,8.90
2005,06,23,05,42,8.90
2005,06,23,05,43,8.90
2005,06,23,05,44,8.90
2005,06,23,05,45,8.90
2005,06,23,05,46,8.90
2005,06,23,05,47,8.90
2005,06,23,05,48,8.90
2005,06,23,05,49,8.90
2005,06,23,05,50,9.00
2005,06,23,05,51,9.00
2005,06,23,05,52,9.00
2005,06,23,05,53,9.00
2005,06,23,05,54,9.00
2005,06,23,05,55,9.00
2005,06,23,05,56,9.00
2005,06,23,05,57,9.00
2005,06,23,05,58,9.00
2005,06,23,05,59,9.00
2005,06,23,06,00,9.00
2005,06,23,06,01,9.10
2005,06,23,06,02,9.10
2005,06,23,06,03,9.10
2005,06,23,06,04,9.10
2005,06,23,06,05,9.10
2005,06,23,06,06,9.10
2005,06,23,06,07,9.10
2005,06,23,06,08,9.10
2005,06,23,06,09,9.10
2005,06,23,06,10,9.10
2005,06,23,06,11,9.10
2005,06,23,06,12,9.10
2005,06,23,06,13,9.10
2005,06,23,06,14,9.10
2005,06,23,06,15,9.10
2005,06,23,06,16,9.10
2005,06,23,06,17,9.10
2005,06,23,06,18,9.10
2005,06,23,06,19,9.10
2005,06,23,06,20,9.10
2005,06,23,06,21,9.10
2005,06,23,06,22,9.10
2005,06,23,06,23,9.10
2005,06,23,06,24,9.10
2005,06,23,06,25,9.20
2005,06,23,06,26,9.20
2005,06,23,06,27,9.20
2005,06,23,06,28,9.20
2005,06,23,06,29,9.20
2005,06,23,06,30,9.20
2005,06,23,06,31,9.20
2005,06,23,06,32,9.30
2005,06,23,06,33,9.30
2005,06,23,06,34,9.30
2005,06,23,06,35,9.30
2005,06,23,06,36,9.30
2005,06,23,06,37,9.40
2005,06,23,06,38,9.40
2005,06,23,06,39,9.40
2005,06,23,06,40,9.40
2005,06,23,06,41,9.50
2005,06,23,06,42,9.50
2005,06,23,06,43,9.60
2005,06,23,06,44,9.60
2005,06,23,06,45,9.70
2005,06,23,06,46,9.70
2005,06,23,06,47,9.70
2005,06,23,06,48,9.80
2005,06,23,06,49,9.80
2005,06,23,06,50,9.90
2005,06,23,06,51,9.90
2005,06,23,06,52,9.90
2005,06,23,06,53,9.90
2005,06,23,06,54,10.00
2005,06,23,06,55,10.10
2005,06,23,06,56,10.10
2005,06,23,06,57,10.20
2005,06,23,06,58,10.20
2005,06,23,06,59,10.20
2005,06,23,07,00,10.30
2005,06,23,07,01,10.30
2005,06,23,07,02,10.40
2005,06,23,07,03,10.50
2005,06,23,07,04,10.60
2005,06,23,07,05,10.60
2005,06,23,07,06,10.60
2005,06,23,07,07,10.70
2005,06,23,07,08,10.70
2005,06,23,07,09,10.80
2005,06,23,07,10,10.80
2005,06,23,07,11,10.90
2005,06,23,07,12,10.90
2005,06,23,07,13,10.90
2005,06,23,07,14,10.90
2005,06,23,07,15,11.10
2005,06,23,07,16,11.10
2005,06,23,07,17,11.10
2005,06,23,07,18,11.20
2005,06,23,07,19,11.20
2005,06,23,07,20,11.20
2005,06,23,07,21,11.30
2005,06,23,07,22,11.30
2005,06,23,07,23,11.40
2005,06,23,07,24,11.40
2005,06,23,07,25,11.40
2005,06,23,07,26,11.40
2005,06,23,07,27,11.60
2005,06,23,07,28,11.60
2005,06,23,07,29,11.60
2005,06,23,07,30,11.60
2005,06,23,07,31,11.70
2005,06,23,07,32,11.80
2005,06,23,07,33,11.80
2005,06,23,07,34,11.80
2005,06,23,07,35,11.80
2005,06,23,07,36,11.90
2005,06,23,07,37,11.90
2005,06,23,07,38,12.00
2005,06,23,07,39,12.00
2005,06,23,07,40,12.10
2005,06,23,07,41,12.10
2005,06,23,07,42,12.10
2005,06,23,07,43,12.10
2005,06,23,07,44,12.20
2005,06,23,07,45,12.20
2005,06,23,07,46,12.20
2005,06,23,07,47,12.30
2005,06,23,07,48,12.30
2005,06,23,07,49,12.30
2005,06,23,07,50,12.30
2005,06,23,07,51,12.30
2005,06,23,07,52,12.30
2005,06,23,07,53,12.40
2005,06,23,07,54,12.40
2005,06,23,07,55,12.40
2005,06,23,07,56,12.40
2005,06,23,07,57,12.50
2005,06,23,07,58,12.50
2005,06,23,07,59,12.50
2005,06,23,08,00,12.50
2005,06,23,08,01,12.50
2005,06,23,08,02,12.60
2005,06,23,08,03,12.60
2005,06,23,08,04,12.60
2005,06,23,08,05,12.60
2005,06,23,08,06,12.60
2005,06,23,08,07,12.70
2005,06,23,08,08,12.70
2005,06,23,08,09,12.70
2005,06,23,08,10,12.80
2005,06,23,08,11,12.80
2005,06,23,08,12,12.80
2005,06,23,08,13,12.90
2005,06,23,08,14,12.90
2005,06,23,08,15,13.00
2005,06,23,08,16,13.00
2005,06,23,08,17,13.00
2005,06,23,08,18,13.10
2005,06,23,08,19,13.10
2005,06,23,08,20,13.10
2005,06,23,08,21,13.20
2005,06,23,08,22,13.20
2005,06,23,08,23,13.30
2005,06,23,08,24,13.30
2005,06,23,08,25,13.30
2005,06,23,08,26,13.40
2005,06,23,08,27,13.40
2005,06,23,08,28,13.40
2005,06,23,08,29,13.50
2005,06,23,08,30,13.50
2005,06,23,08,31,13.60
2005,06,23,08,32,13.60
2005,06,23,08,33,13.70
2005,06,23,08,34,13.70
2005,06,23,08,35,13.70
2005,06,23,08,36,13.80
2005,06,23,08,37,13.80
2005,06,23,08,38,13.80
2005,06,23,08,39,13.90
2005,06,23,08,40,14.00
2005,06,23,08,41,14.00
2005,06,23,08,42,14.10
2005,06,23,08,43,14.20
2005,06,23,08,44,14.20
2005,06,23,08,45,14.20
2005,06,23,08,46,14.30
2005,06,23,08,47,14.40
2005,06,23,08,48,14.40
2005,06,23,08,49,14.50
2005,06,23,08,50,14.50
2005,06,23,08,51,14.60
2005,06,23,08,52,14.60
2005,06,23,08,53,14.70
2005,06,23,08,54,14.70
2005,06,23,08,55,14.70
2005,06,23,08,56,14.70
2005,06,23,08,57,14.70
2005,06,23,08,58,14.70
2005,06,23,08,59,14.80
2005,06,23,09,00,14.80
2005,06,23,09,01,14.80
2005,06,23,09,02,14.80
2005,06,23,09,03,14.90
2005,06,23,09,04,15.00
2005,06,23,09,05,15.00
2005,06,23,09,06,15.10
2005,06,23,09,07,15.20
2005,06,23,09,08,15.30
2005,06,23,09,09,15.40
2005,06,23,09,10,15.40
2005,06,23,09,11,15.50
2005,06,23,09,12,15.60
2005,06,23,09,13,15.70
2005,06,23,09,14,15.70
2005,06,23,09,15,15.70
2005,06,23,09,16,15.80
2005,06,23,09,17,15.80
2005,06,23,09,18,15.80
2005,06,23,09,19,15.90
2005,06,23,09,20,16.10
2005,06,23,09,21,16.20
2005,06,23,09,22,16.30
2005,06,23,09,23,16.30
2005,06,23,09,24,16.40
2005,06,23,09,25,16.40
2005,06,23,09,26,16.50
2005,06,23,09,27,16.60
2005,06,23,09,28,16.70
2005,06,23,09,29,16.70
2005,06,23,09,30,16.70
2005,06,23,09,31,16.70
2005,06,23,09,32,16.60
2005,06,23,09,33,16.60
2005,06,23,09,34,16.60
2005,06,23,09,35,16.60
2005,06,23,09,36,16.70
2005,06,23,09,37,16.70
2005,06,23,09,38,16.70
2005,06,23,09,39,16.60
2005,06,23,09,40,16.60
2005,06,23,09,41,16.60
2005,06,23,09,42,16.70
2005,06,23,09,43,16.70
2005,06,23,09,44,16.70
2005,06,23,09,45,16.80
2005,06,23,09,46,16.90
2005,06,23,09,47,17.10
2005,06,23,09,48,17.30
2005,06,23,09,49,17.40
2005,06,23,09,50,17.40
2005,06,23,09,51,17.40
2005,06,23,09,52,17.50
2005,06,23,09,53,17.60
2005,06,23,09,54,17.60
2005,06,23,09,55,17.60
2005,06,23,09,56,17.60
2005,06,23,09,57,17.50
2005,06,23,09,58,17.30
2005,06,23,09,59,17.30
2005,06,23,10,00,17.40
2005,06,23,10,01,17.50
2005,06,23,10,02,17.60
2005,06,23,10,03,17.60
2005,06,23,10,04,17.70
2005,06,23,10,05,17.70
2005,06,23,10,06,17.80
2005,06,23,10,07,17.80
2005,06,23,10,08,17.90
2005,06,23,10,09,17.90
2005,06,23,10,10,17.90
2005,06,23,10,11,17.70
2005,06,23,10,12,17.60
2005,06,23,10,13,17.50
2005,06,23,10,14,17.50
2005,06,23,10,15,17.60
2005,06,23,10,16,17.60
2005,06,23,10,17,17.60
2005,06,23,10,18,17.50
2005,06,23,10,19,17.40
2005,06,23,10,20,17.50
2005,06,23,10,21,17.50
2005,06,23,10,22,17.60
2005,06,23,10,23,17.60
2005,06,23,10,24,17.60
2005,06,23,10,25,17.70
2005,06,23,10,26,17.70
2005,06,23,10,27,17.70
2005,06,23,10,28,17.60
2005,06,23,10,29,17.50
2005,06,23,10,30,17.40
2005,06,23,10,31,17.40
2005,06,23,10,32,17.40
2005,06,23,10,33,17.40
2005,06,23,10,34,17.40
2005,06,23,10,35,17.40
2005,06,23,10,36,17.40
2005,06,23,10,37,17.40
2005,06,23,10,38,17.30
2005,06,23,10,39,17.20
2005,06,23,10,40,17.10
2005,06,23,10,41,17.10
2005,06,23,10,42,17.20
2005,06,23,10,43,17.10
2005,06,23,10,44,17.00
2005,06,23,10,45,16.90
2005,06,23,10,46,16.90
2005,06,23,10,47,16.90
2005,06,23,10,48,17.00
2005,06,23,10,49,17.00
2005,06,23,10,50,17.00
2005,06,23,10,51,17.00
2005,06,23,10,52,17.10
2005,06,23,10,53,17.20
2005,06,23,10,54,17.30
2005,06,23,10,55,17.30
2005,06,23,10,56,17.40
2005,06,23,10,57,17.30
2005,06,23,10,58,17.10
2005,06,23,10,59,17.00
2005,06,23,11,00,16.90
2005,06,23,11,01,16.70
2005,06,23,11,02,16.70
2005,06,23,11,03,16.70
2005,06,23,11,04,16.60
2005,06,23,11,05,16.60
2005,06,23,11,06,16.60
2005,06,23,11,07,16.50
2005,06,23,11,08,16.40
2005,06,23,11,09,16.30
2005,06,23,11,10,16.20
2005,06,23,11,11,16.10
2005,06,23,11,12,16.10
2005,06,23,11,13,16.10
2005,06,23,11,14,16.20
2005,06,23,11,15,16.20
2005,06,23,11,16,16.10
2005,06,23,11,17,16.10
2005,06,23,11,18,16.10
2005,06,23,11,19,16.10
2005,06,23,11,20,16.10
2005,06,23,11,21,16.00
2005,06,23,11,22,15.90
2005,06,23,11,23,15.90
2005,06,23,11,24,15.80
2005,06,23,11,25,15.80
2005,06,23,11,26,15.90
2005,06,23,11,27,15.90
2005,06,23,11,28,16.10
2005,06,23,11,29,16.10
2005,06,23,11,30,16.20
2005,06,23,11,31,16.20
2005,06,23,11,32,16.20
2005,06,23,11,33,16.30
2005,06,23,11,34,16.30
2005,06,23,11,35,16.40
2005,06,23,11,36,16.30
2005,06,23,11,37,16.30
2005,06,23,11,38,16.30
2005,06,23,11,39,16.30
2005,06,23,11,40,16.30
2005,06,23,11,41,16.20
2005,06,23,11,42,16.20
2005,06,23,11,43,16.20
2005,06,23,11,44,16.10
2005,06,23,11,45,16.10
2005,06,23,11,46,16.10
2005,06,23,11,47,16.10
2005,06,23,11,48,16.10
2005,06,23,11,49,16.10
2005,06,23,11,50,16.00
2005,06,23,11,51,16.00
2005,06,23,11,52,16.10
2005,06,23,11,53,16.20
2005,06,23,11,54,16.30
2005,06,23,11,55,16.40
2005,06,23,11,56,16.50
2005,06,23,11,57,16.60
2005,06,23,11,58,16.80
2005,06,23,11,59,17.00
2005,06,23,12,00,17.30
2005,06,23,12,01,17.50
2005,06,23,12,02,17.50
2005,06,23,12,03,17.30
2005,06,23,12,04,17.30
2005,06,23,12,05,17.30
2005,06,23,12,06,17.10
2005,06,23,12,07,17.10
2005,06,23,12,08,17.30
2005,06,23,12,09,17.30
2005,06,23,12,10,17.20
2005,06,23,12,11,17.00
2005,06,23,12,12,16.90
2005,06,23,12,13,16.70
2005,06,23,12,14,16.80
2005,06,23,12,15,16.80
2005,06,23,12,16,16.90
2005,06,23,12,17,16.90
2005,06,23,12,18,16.90
2005,06,23,12,19,16.80
2005,06,23,12,20,16.60
2005,06,23,12,21,16.40
2005,06,23,12,22,16.40
2005,06,23,12,23,16.40
2005,06,23,12,24,16.30
2005,06,23,12,25,16.30
2005,06,23,12,26,16.30
2005,06,23,12,27,16.30
2005,06,23,12,28,16.40
2005,06,23,12,29,16.40
2005,06,23,12,30,16.60
2005,06,23,12,31,16.80
2005,06,23,12,32,16.90
2005,06,23,12,33,16.90
2005,06,23,12,34,16.90
2005,06,23,12,35,16.90
2005,06,23,12,36,16.80
2005,06,23,12,37,16.80
2005,06,23,12,38,16.70
2005,06,23,12,39,16.70
2005,06,23,12,40,16.80
2005,06,23,12,41,17.00
2005,06,23,12,42,17.10
2005,06,23,12,43,17.30
2005,06,23,12,44,17.40
2005,06,23,12,45,17.60
2005,06,23,12,46,17.70
2005,06,23,12,47,17.60
2005,06,23,12,48,17.60
2005,06,23,12,49,17.50
2005,06,23,12,50,17.30
2005,06,23,12,51,17.20
2005,06,23,12,52,17.00
2005,06,23,12,53,16.80
2005,06,23,12,54,16.70
2005,06,23,12,55,16.60
2005,06,23,12,56,16.60
2005,06,23,12,57,16.70
2005,06,23,12,58,16.70
2005,06,23,12,59,16.70
2005,06,23,13,00,16.80
2005,06,23,13,01,16.70
2005,06,23,13,02,16.70
2005,06,23,13,03,16.70
2005,06,23,13,04,16.70
2005,06,23,13,05,16.70
2005,06,23,13,06,16.80
2005,06,23,13,07,16.80
2005,06,23,13,08,16.80
2005,06,23,13,09,16.80
2005,06,23,13,10,16.80
2005,06,23,13,11,16.70
2005,06,23,13,12,16.70
2005,06,23,13,13,16.70
2005,06,23,13,14,16.70
2005,06,23,13,15,16.70
2005,06,23,13,16,16.80
2005,06,23,13,17,16.80
2005,06,23,13,18,16.80
2005,06,23,13,19,16.80
2005,06,23,13,20,16.70
2005,06,23,13,21,16.70
2005,06,23,13,22,16.70
2005,06,23,13,23,16.70
2005,06,23,13,24,16.70
2005,06,23,13,25,16.80
2005,06,23,13,26,16.90
2005,06,23,13,27,16.90
2005,06,23,13,28,16.90
2005,06,23,13,29,17.00
2005,06,23,13,30,16.90
2005,06,23,13,31,17.00
2005,06,23,13,32,17.00
2005,06,23,13,33,17.00
2005,06,23,13,34,17.00
2005,06,23,13,35,17.10
2005,06,23,13,36,17.10
2005,06,23,13,37,17.10
2005,06,23,13,38,17.00
2005,06,23,13,39,17.00
2005,06,23,13,40,17.10
2005,06,23,13,41,17.10
2005,06,23,13,42,17.20
2005,06,23,13,43,17.20
2005,06,23,13,44,17.20
2005,06,23,13,45,17.20
2005,06,23,13,46,17.20
2005,06,23,13,47,17.20
2005,06,23,13,48,17.10
2005,06,23,13,49,17.10
2005,06,23,13,50,17.00
2005,06,23,13,51,17.00
2005,06,23,13,52,17.00
2005,06,23,13,53,16.90
2005,06,23,13,54,17.00
2005,06,23,13,55,17.00
2005,06,23,13,56,17.10
2005,06,23,13,57,17.10
2005,06,23,13,58,17.20
2005,06,23,13,59,17.20
2005,06,23,14,00,17.10
2005,06,23,14,01,17.10
2005,06,23,14,02,17.10
2005,06,23,14,03,17.20
2005,06,23,14,04,17.20
2005,06,23,14,05,17.20
2005,06,23,14,06,17.20
2005,06,23,14,07,17.10
2005,06,23,14,08,17.10
2005,06,23,14,09,17.30
2005,06,23,14,10,17.30
2005,06,23,14,11,17.40
2005,06,23,14,12,17.40
2005,06,23,14,13,17.40
2005,06,23,14,14,17.30
2005,06,23,14,15,17.30
2005,06,23,14,16,17.20
2005,06,23,14,17,17.10
2005,06,23,14,18,17.10
2005,06,23,14,19,17.20
2005,06,23,14,20,17.20
2005,06,23,14,21,17.10
2005,06,23,14,22,17.10
2005,06,23,14,23,17.30
2005,06,23,14,24,17.30
2005,06,23,14,25,17.30
2005,06,23,14,26,17.30
2005,06,23,14,27,17.30
2005,06,23,14,28,17.20
2005,06,23,14,29,17.30
2005,06,23,14,30,17.30
2005,06,23,14,31,17.50
2005,06,23,14,32,17.60
2005,06,23,14,33,17.80
2005,06,23,14,34,17.90
2005,06,23,14,35,18.10
2005,06,23,14,36,18.10
2005,06,23,14,37,18.00
2005,06,23,14,38,17.90
2005,06,23,14,39,17.70
2005,06,23,14,40,17.70
2005,06,23,14,41,17.70
2005,06,23,14,42,17.70
2005,06,23,14,43,17.80
2005,06,23,14,44,18.00
2005,06,23,14,45,18.00
2005,06,23,14,46,17.90
2005,06,23,14,47,17.90
2005,06,23,14,48,17.90
2005,06,23,14,49,17.80
2005,06,23,14,50,17.70
2005,06,23,14,51,17.80
2005,06,23,14,52,17.80
2005,06,23,14,53,17.90
2005,06,23,14,54,17.90
2005,06,23,14,55,17.90
2005,06,23,14,56,17.90
2005,06,23,14,57,17.90
2005,06,23,14,58,17.80
2005,06,23,14,59,17.80
2005,06,23,15,00,17.80
2005,06,23,15,01,17.80
2005,06,23,15,02,17.90
2005,06,23,15,03,17.90
2005,06,23,15,04,17.90
2005,06,23,15,05,17.90
2005,06,23,15,06,17.70
2005,06,23,15,07,17.60
2005,06,23,15,08,17.60
2005,06,23,15,09,17.60
2005,06,23,15,10,17.50
2005,06,23,15,11,17.60
2005,06,23,15,12,17.60
2005,06,23,15,13,17.60
2005,06,23,15,14,17.60
2005,06,23,15,15,17.60
2005,06,23,15,16,17.60
2005,06,23,15,17,17.60
2005,06,23,15,18,17.70
2005,06,23,15,19,17.50
2005,06,23,15,20,17.50
2005,06,23,15,21,17.40
2005,06,23,15,22,17.40
2005,06,23,15,23,17.40
2005,06,23,15,24,17.50
2005,06,23,15,25,17.50
2005,06,23,15,26,17.50
2005,06,23,15,27,17.50
2005,06,23,15,28,17.60
2005,06,23,15,29,17.70
2005,06,23,15,30,17.60
2005,06,23,15,31,17.60
2005,06,23,15,32,17.60
2005,06,23,15,33,17.60
2005,06,23,15,34,17.50
2005,06,23,15,35,17.60
2005,06,23,15,36,17.50
2005,06,23,15,37,17.70
2005,06,23,15,38,17.80
2005,06,23,15,39,17.80
2005,06,23,15,40,17.90
2005,06,23,15,41,17.90
2005,06,23,15,42,17.90
2005,06,23,15,43,17.90
2005,06,23,15,44,17.90
2005,06,23,15,45,17.80
2005,06,23,15,46,17.80
2005,06,23,15,47,17.90
2005,06,23,15,48,17.90
2005,06,23,15,49,17.90
2005,06,23,15,50,17.80
2005,06,23,15,51,17.80
2005,06,23,15,52,17.80
2005,06,23,15,53,17.80
2005,06,23,15,54,17.70
2005,06,23,15,55,17.80
2005,06,23,15,56,17.80
2005,06,23,15,57,17.90
2005,06,23,15,58,17.90
2005,06,23,15,59,17.90
2005,06,23,16,00,17.90
2005,06,23,16,01,17.90
2005,06,23,16,02,17.90
2005,06,23,16,03,17.90
2005,06,23,16,04,17.90
2005,06,23,16,05,18.00
2005,06,23,16,06,17.90
2005,06,23,16,07,17.90
2005,06,23,16,08,18.10
2005,06,23,16,09,18.10
2005,06,23,16,10,18.20
2005,06,23,16,11,18.20
2005,06,23,16,12,18.20
2005,06,23,16,13,18.20
2005,06,23,16,14,18.20
2005,06,23,16,15,18.30
2005,06,23,16,16,18.20
2005,06,23,16,17,18.20
2005,06,23,16,18,18.20
2005,06,23,16,19,18.20
2005,06,23,16,20,18.20
2005,06,23,16,21,18.20
2005,06,23,16,22,18.20
2005,06,23,16,23,18.20
2005,06,23,16,24,18.20
2005,06,23,16,25,18.10
2005,06,23,16,26,18.00
2005,06,23,16,27,18.00
2005,06,23,16,28,18.10
2005,06,23,16,29,18.00
2005,06,23,16,30,17.90
2005,06,23,16,31,17.90
2005,06,23,16,32,18.00
2005,06,23,16,33,18.10
2005,06,23,16,34,18.10
2005,06,23,16,35,18.10
2005,06,23,16,36,18.10
2005,06,23,16,37,18.00
2005,06,23,16,38,18.00
2005,06,23,16,39,18.10
2005,06,23,16,40,18.10
2005,06,23,16,41,18.10
2005,06,23,16,42,18.00
2005,06,23,16,43,17.90
2005,06,23,16,44,18.00
2005,06,23,16,45,18.10
2005,06,23,16,46,18.20
2005,06,23,16,47,18.30
2005,06,23,16,48,18.30
2005,06,23,16,49,18.30
2005,06,23,16,50,18.20
2005,06,23,16,51,18.20
2005,06,23,16,52,18.20
2005,06,23,16,53,18.30
2005,06,23,16,54,18.30
2005,06,23,16,55,18.30
2005,06,23,16,56,18.30
2005,06,23,16,57,18.40
2005,06,23,16,58,18.50
2005,06,23,16,59,18.50
2005,06,23,17,00,18.50
2005,06,23,17,01,18.50
2005,06,23,17,02,18.60
2005,06,23,17,03,18.50
2005,06,23,17,04,18.40
2005,06,23,17,05,18.40
2005,06,23,17,06,18.30
2005,06,23,17,07,18.20
2005,06,23,17,08,18.20
2005,06,23,17,09,18.20
2005,06,23,17,10,18.20
2005,06,23,17,11,18.20
2005,06,23,17,12,18.20
2005,06,23,17,13,18.20
2005,06,23,17,14,18.20
2005,06,23,17,15,18.20
2005,06,23,17,16,18.30
2005,06,23,17,17,18.40
2005,06,23,17,18,18.50
2005,06,23,17,19,18.40
2005,06,23,17,20,18.40
2005,06,23,17,21,18.40
2005,06,23,17,22,18.40
2005,06,23,17,23,18.40
2005,06,23,17,24,18.40
2005,06,23,17,25,18.40
2005,06,23,17,26,18.50
2005,06,23,17,27,18.50
2005,06,23,17,28,18.50